Location: Delmar
(42.6220°N, 73.8326°W)
Time: 05:59:01
(UTC+00:00)

Cosmos 1812 Rocket - Pass Details

Date: 29 October 2020
Orbit: 605 x 633 km, 82.5° (Epoch: 27 November)

Event Time Altitude Azimuth Distance (km) Brightness Sun altitude
Rises 23:48:12 0° 193° (SSW) 2,889 7.1 -22.0°
Reaches altitude 10° 23:50:26 10° 196° (SSW) 1,983 6.3 -22.4°
Maximum altitude 23:54:48 67° 279° (W) 674 3.8 -23.2°
Drops below altitude 10° 23:59:10 10° 3° (N) 1,982 6.1 -24.0°
Sets 00:01:24 0° 6° (N) 2,887 7.0 -24.4°
